Flag for Norway Weather past 2 weeks in Stange, Norway

Now
29 °F

Chilly.


Feels Like: 29 °F
Forecast: 35 / 49 °F
Wind: 2 mph from Southeast

Location: Haugedalshogda

Current Time: Apr 28, 2015 at 3:02:15 AM

Latest Report: Apr 28, 2015 at 2:00 AM


Visibility: N/A

Pressure: 29.70 "Hg

Humidity: 91%

Dew point: 27 °F

Location of StangeLocation

Historic Weather in Stange — Graph

°F

Stange temperature yesterday

Maximum temperature yesterday: 53 °F (at 4:00 PM)
Minimum temperature yesterday: 17 °F (at 5:00 AM)
Average temperature yesterday: 36 °F

Past Weeks' High & Low Weather Summary

 TemperatureHumidityPressure
High67 °F (Apr 20, 2:00 PM)96% (Apr 15, 3:00 AM)30.42 "Hg (Apr 15, 3:00 AM)
Low17 °F (Apr 27, 5:00 AM)15% (Apr 20, 2:00 PM)29.29 "Hg (Apr 25, 11:00 PM)
Average40 °F60%29.90 "Hg
* Reported Apr 13 1:00 AM — Apr 28 1:00 AM, Stange, Weather by CustomWeather, © 2015

Note: Actual official high and low records may vary slightly from our data, if they occured in-between our weather recording intervals... More about our weather records

Advertising

Stange weather history for previous 24 hours

 ConditionsComfort  
Time TempWeatherWind HumidityBarometerVisibility
1:00 AM
Tue, Apr 28
30 °FChilly.1 mph88%29.70 "HgN/A
12:00 AM36 °FChilly.2 mph82%29.67 "HgN/A
11:00 PM
Mon, Apr 27
37 °FChilly.3 mph79%29.66 "HgN/A
10:00 PM38 °FChilly.2 mph71%29.66 "HgN/A
9:00 PM39 °FChilly.3 mph66%29.65 "HgN/A
8:00 PM42 °FQuite cool.5 mph51%29.62 "HgN/A
7:00 PM44 °FQuite cool.2 mph45%29.60 "HgN/A
6:00 PM45 °FQuite cool.6 mph42%29.60 "HgN/A
5:00 PM46 °FCool.8 mph34%29.59 "HgN/A
4:00 PM53 °FCool.5 mph19%29.57 "HgN/A
3:00 PM52 °FCool.3 mph22%29.58 "HgN/A
2:00 PM51 °FCool.2 mph20%29.59 "HgN/A
1:00 PM49 °FCool.2 mph19%29.60 "HgN/A
12:00 PM48 °FCool.2 mph18%29.62 "HgN/A
11:00 AM46 °FCool.1 mph33%29.63 "HgN/A
10:00 AM42 °FQuite cool.1 mph42%29.64 "HgN/A
9:00 AM35 °FChilly.1 mph58%29.66 "HgN/A
8:00 AM30 °FChilly.1 mph78%29.67 "HgN/A
7:00 AM24 °FCold.2 mph89%29.69 "HgN/A
6:00 AM18 °FCold.No wind93%29.70 "HgN/A
5:00 AM17 °FCold.1 mph91%29.70 "HgN/A
4:00 AM19 °FCold.No wind93%29.69 "HgN/A
3:00 AM19 °FCold.1 mph91%29.68 "HgN/A
Weather by CustomWeather, © 2015

See weather overviewHow to use our weather pages